Tracking 31027 objects as of 19-Jul-2025
HD Live streaming from Space Station
objects crossing your sky now

SL-16 DEB

Track SL-16 DEB now!
10-day predictions


NORAD ID: 18476
Int'l Code: 1987-041F
Perigee: 843.1 km
Apogee: 1,148.0 km
Inclination: 71.0 °
Period: 104.9 minutes
Semi major axis: 7366 km
RCS: 0.095 m2 (small)
Launch date: May 13, 1987
Source: Commonwealth of Independent States (former USSR) (CIS)
Launch site: TYURATAM MISSILE AND SPACE COMPLEX (TTMTR)

Note: This is SATELLITE DEBRIS
Your satellite tracking list
OBJECT A
Track 1 satellite(s)




NASA's NSSDC Master Catalog

Two Line Element Set (TLE):
1 18476U 87041F   25199.49671332  .00000085  00000-0  11787-3 0  9997
2 18476  70.9887 100.1977 0206938 166.7484  13.0612 13.73121340912073
Source of the keplerian elements: AFSPC